EHI
0 0 0 0 0 0 0 0 0 0 0 0 0 0 0 0 0 0 0 0 0 0 0 0 0 0 0 0 0 0 0 0 0 0 0 0 0 0
0 0 0 0 0 0 0 0 0 0 0 0 0 0 0 0 0 0 0 0 0 0 0 0 0 0 0 0 0 0 0 0 0 0 0 0 0 0
0 0 0 0 0 0 0 0 0 0 0 0 0 0 0 0 0 0 0 0 0 0 0 0 0 0 0 0 0 0 0 0 0 0 0 0 0 0
0 0 0 0 0 0 0 0 0 0 0 0 0 0 0 0 0 0 0 0 0 0 0 0 0 0 0 0 0 0 0 0 0 0 0 0 0 0
0 0 0 0 0 0 0 0 0 0 0 0 0 0 0 0 0 0 0 0 0 0 0 0 0 0 0 0 0 0 0 0 0 0 0 0 0 0
0 0 0 0 0 0 0 0 0 0 0 0 0 0 0 0 0 0 0 0 0 0 0 0 0 0 0 0 0 0 0 0 0 0 0 0 0 0
0 0 0 0 0 0 0 0 0 0 0 0 0 0 0 0 0 0 0 0 0 0 0 0 0 0 0 0 0 0 0 0 0 0 0 0 0 0
0 0 0 0 0 0 0 0 0 0 0 0 0 0 0 0 0 0 0 0 0 0 0 0 0 0 0 0 0 0 0 0 0 0 0 0 0 0
0 0 0 0 0 0 0 0 0 0 0 0 0 0 0 0 0 0 0 0 0 0 0 0 0 0 0 0 0 0 0 0 0 0 0 0 0 0
0 0 0 0 0 0 0 0 0 0 0 0 0 0 0 0 0 0 0 0 0 0 0 0 0 0 0 0 0 0 0 0 0 0 0 0 0 0
0 0 0 0 0 0 0 0 0 0 0 0 0 0 0 0 0 0 0 0 0 0 0 0 0 0 0 0 0 0 0 0 0 0 0 0 0 0
0 0 0 0 0 0 0 0 0 0 0 0 0 0 0 0 0 0 0 0 0 0 0 0 0 0 0 0 0 0 0 0 0 0 0 0 0 0
0 0 0 0 0 0 0 0 0 0 0 0 0 0 0 0 0 0 0 0 0 0 0 0 0 0 0 0 0 0 0 0 0 0 0 0 0 0
0 0 0 0 0 0 0 0 0 0 0 0 0 0 0 0 0 0 0 0 0 0 0 0 0 0 0 0 0 0 0 0 0 0 0 0 0 0
0 0 0 0 0 0 0 0 0 0 0 0 0 0 0 0 0 0 0 0 0 0 0 0 0 0 0 0 0 0 0 0 0 0 0 0 0 0
0 0 0 0 0 0 0 0 0 0 0 0 0 0 0 0 0 0 0 0 0 0 0 0 0 0 0 0 0 0 0 0 0 0 0 0 0 0
0 0 0 0 0 0 0 0 0 0 0 0 0 0 0 0 0 0 0 0 0 0 0 0 0 0 0 0 0 0 0 0 0 0 0 0 0 0
0 0 0 0 0 0 0 0 0 0 0 0 0 0 0 0 0 0 0 0 0 0 0 0 0 0 0 0 0 0 0 0 0 0 0 0 0 0
0 0 0 0 0 0 0 0 0 0 0 0 0 0 0 0 0 0 0 0 0 0 0 0 0 0 0 0 0 0 0 0 0 0 0 0 0 0
0 0 0 0 0 0 0 0 0 0 0 0 0 0 0 0 0 0 0 0 0 0 0 0 0 0 0 0 0 0 0 0 0 0 0 0 0 0
0 0 0 0 0 0 0 0 0 0 0 0 0 0 0 0 0 0 0 0 0 0 0 0 0 0 0 0 0 0 0 0 0 0 0 0 0 0
0 0 0 0 0 0 0 0 0 0 0 0 0 0 0 0 0 0 0 0 0 0 0 0 0 0 0 0 0 0 0 0 0 0 0 0 0 0
0 0 0 0 0 0 0 0 0 0 0 0 0 0 0 0 0 0 0 0 0 0 0 0 0 0 0 0 0 0 0 0 0 0 0 0 0 0
Wind_Speed
2 2 1 0 0 1 2 3 4 3 2 1 1 1 2 3 4 4 4 7 8 8 8 8 8 9 9 9 9 9 8 8 8 7 6 6 5 4
2 2 2 1 1 1 1 1 2 3 3 2 1 2 3 4 5 4 4 7 7 8 8 8 8 8 9 9 8 8 8 7 7 6 5 4 3 2
4 3 3 2 1 1 1 2 2 3 4 3 2 3 3 4 4 3 3 3 3 6 7 7 7 7 7 7 7 7 6 6 5 4 3 3 2 1
4 4 4 3 3 2 2 2 2 3 5 6 3 3 3 4 4 3 3 3 2 4 5 6 6 6 6 6 5 5 4 4 4 3 3 2 2 2
4 4 3 3 3 2 2 2 2 3 4 6 4 3 3 3 4 3 3 1 2 3 4 5 5 6 5 5 5 4 4 3 3 3 3 2 3 3
4 4 3 3 2 2 2 3 4 5 5 5 5 4 3 3 3 3 2 1 0 1 2 3 4 4 5 6 6 6 5 5 5 4 4 4 4 4
5 4 4 5 5 3 2 3 4 4 5 5 5 4 3 3 2 2 2 1 1 0 1 1 1 1 2 5 7 8 8 7 7 6 6 6 6 6
4 4 4 5 6 6 6 6 6 6 5 5 4 5 4 3 3 3 2 2 1 1 2 1 1 2 3 3 7 9 9 9 8 8 8 8 8 8
4 4 4 5 5 4 6 8 7 7 6 6 6 5 4 4 4 3 2 2 2 2 2 1 1 2 3 4 9 10 10 10 10 10 9 9 9 9
5 4 4 4 5 5 6 7 6 5 4 4 5 4 4 3 4 4 3 2 1 0 2 1 1 2 2 3 7 9 10 10 10 10 10 10 10 10
5 5 5 5 7 8 7 7 7 5 7 8 6 5 5 4 4 3 3 3 1 1 0 1 1 1 2 2 3 6 8 9 10 10 11 11 10 9
4 5 7 7 7 7 6 6 6 3 4 5 5 4 3 2 3 3 3 3 2 1 1 2 1 0 2 3 2 2 2 6 9 11 12 12 11 5
3 3 4 7 8 8 6 4 3 3 3 3 3 2 2 1 1 1 3 4 3 2 3 2 1 1 1 2 3 2 2 3 3 5 8 12 11 8
2 2 3 6 6 6 4 4 5 5 3 3 2 1 1 1 1 1 2 2 3 4 4 4 3 3 2 1 3 3 3 3 3 3 4 6 8 10
2 3 5 6 6 4 4 5 4 3 3 3 1 0 1 1 1 1 2 1 2 2 3 4 4 3 3 3 3 3 3 3 3 3 3 4 4 3
4 5 6 6 5 4 3 3 2 1 2 2 1 1 1 1 1 0 0 1 2 3 3 2 4 4 3 4 3 3 3 3 3 3 3 4 4 4
3 3 4 3 4 3 3 2 1 1 1 0 0 0 1 1 1 1 0 0 0 2 4 3 2 2 5 4 3 4 4 4 4 3 2 3 5 5
3 3 2 2 1 1 1 1 1 0 0 0 0 0 1 1 1 1 0 1 1 2 2 3 2 3 3 3 6 5 4 4 4 3 3 3 5 6
2 1 2 2 1 1 1 1 1 1 1 1 1 1 1 1 1 1 1 1 2 2 3 2 1 1 1 4 7 5 5 4 3 3 4 4 5 6
1 2 2 2 2 1 1 1 1 1 1 1 1 1 1 1 1 2 2 2 2 2 3 3 2 3 4 5 5 5 6 5 4 4 4 4 5 7
2 2 2 2 2 2 2 2 2 2 2 1 1 2 1 1 1 2 2 3 2 2 3 4 5 5 2 1 3 5 5 7 8 6 4 3 4 4
3 3 3 3 3 2 2 2 2 2 2 2 2 2 2 2 2 3 3 3 3 3 4 4 4 2 1 3 5 6 6 7 7 10 11 10 5 5
4 4 3 3 3 2 2 3 3 2 3 2 2 2 2 2 2 3 3 3 3 4 4 4 3 2 3 4 4 5 7 7 5 5 7 11 15 17
Wind_Direction
2 4 9 327 157 166 158 162 159 163 166 147 91 71 96 91 95 90 100 117 120 119 120 121 120 124 127 125 123 121 119 120 122 121 120 117 117 120
11 25 19 8 49 86 144 141 145 148 145 142 139 130 117 117 113 94 98 114 119 126 128 127 126 128 131 131 130 128 125 125 129 132 135 135 139 139
17 28 24 27 49 38 71 104 110 118 127 111 95 107 104 111 103 91 93 95 116 132 135 135 135 136 139 139 136 135 136 139 145 150 156 164 169 177
17 24 19 29 40 35 57 81 102 113 128 127 117 106 98 115 109 109 113 126 125 143 154 152 151 155 154 151 148 150 156 165 172 176 182 192 217 248
22 26 17 33 38 38 56 79 101 104 107 125 124 109 102 117 110 102 107 88 148 156 171 175 176 175 172 172 173 181 190 199 209 214 220 232 248 261
28 28 24 36 45 60 75 92 106 107 109 117 118 112 107 113 112 114 108 68 103 155 165 171 180 191 196 197 201 205 211 220 227 234 242 249 257 264
28 25 30 47 50 60 90 108 116 115 116 118 121 120 125 129 131 135 133 101 27 193 136 178 160 198 216 219 219 218 221 226 232 236 242 247 253 260
32 21 26 33 40 56 80 97 115 126 127 124 127 138 143 145 133 136 133 126 217 248 146 223 166 219 231 222 227 225 227 231 235 239 242 246 250 256
38 30 31 32 37 58 76 80 80 96 119 136 140 149 154 162 147 139 147 161 201 204 128 230 236 240 242 235 230 230 232 234 238 241 244 245 249 255
41 40 48 34 41 70 80 73 69 68 92 110 130 141 149 152 155 158 163 138 42 50 132 173 252 248 260 253 246 239 237 238 241 244 246 247 249 254
36 39 46 50 51 70 79 78 69 60 71 91 104 114 125 133 139 114 104 100 73 315 142 149 246 286 295 279 266 254 247 244 245 247 248 249 249 253
30 30 41 54 56 66 80 87 81 69 75 79 75 73 82 96 121 134 139 126 126 256 244 150 203 74 328 298 286 282 271 260 254 252 251 251 248 241
37 21 21 42 54 60 73 88 100 99 86 86 79 65 49 43 55 148 164 152 153 216 222 156 167 156 181 293 304 275 242 253 263 260 255 253 247 223
45 11 12 31 40 46 60 71 75 82 86 85 82 67 39 341 301 274 217 201 197 203 207 170 176 181 174 255 283 290 279 253 237 252 259 266 257 238
30 13 14 23 30 34 39 53 64 75 88 89 95 228 250 259 304 338 338 328 304 259 221 195 185 180 173 202 241 260 284 284 249 243 254 251 250 234
15 4 13 19 30 28 20 28 46 93 121 133 181 274 329 357 347 344 349 354 352 321 308 247 205 185 200 221 219 250 246 257 271 258 254 262 257 233
1 16 18 10 10 7 6 3 14 46 80 124 118 2 352 354 322 320 76 70 37 294 306 310 277 212 215 209 236 252 256 260 254 253 250 271 269 252
39 21 357 347 338 331 331 344 359 333 243 184 158 205 251 275 301 317 293 189 236 261 271 286 325 354 348 290 222 232 252 252 259 252 224 240 273 271
38 332 312 299 287 270 255 235 251 247 206 179 185 212 226 250 266 285 286 272 264 265 268 265 238 179 266 288 287 228 213 248 259 267 245 225 245 264
301 282 286 279 261 242 233 232 244 263 248 228 230 237 233 242 267 273 269 254 259 272 286 284 248 216 212 235 259 275 235 218 231 252 262 259 257 269
286 275 263 255 244 228 226 225 224 232 234 227 243 247 244 236 263 268 266 268 261 259 269 270 264 258 232 233 287 284 277 246 224 225 241 258 274 286
262 262 255 238 232 225 225 224 223 231 236 232 240 245 241 228 246 263 264 263 258 256 261 268 280 290 207 241 264 271 282 291 277 254 238 219 215 233
244 242 242 239 234 226 219 217 215 223 224 223 229 234 232 239 250 254 259 262 264 269 274 281 291 286 263 252 259 268 274 280 285 295 285 262 243 245